Weather History for Port Angeles, WA

Change the Weather History Date:

Thursday, November 1, 2012

  Actual Average Record
Temperature  
Mean Temperature 52 °F -  
Max Temperature 55 °F 53 °F 66 °F (1958)
Min Temperature 48 °F 39 °F 24 °F (2002)
Degree Days  
Heating Degree Days 14    
Growing Degree Days 2 (Base 50)    
Moisture  
Dew Point 49 °F    
Average Humidity 93    
Maximum Humidity 97    
Minimum Humidity 80    
Precipitation  
Precipitation 0.00 in - - ()
Sea Level Pressure  
Sea Level Pressure 29.84 in    
Wind  
Wind Speed 1 mph (SSW)    
Max Wind Speed 6 mph    
Max Gust Speed -    
Visibility 4 miles    
Events Fog , Rain    
Averages and records for this station are not official NWS values.
T = Trace of Precipitation, MM = Missing Value Source: NWS Daily Summary

Daily Weather History Graph

Daily Weather History Graph

Search for Another Location

Airport:

Trip Planner

Search our weather history database for the weather conditions in past years. The results will help you decide how hot, cold, wet, or windy it might be!

Date:

Astronomy

Nov. 01, 2012 Rise Set
Actual Time 8:00 AM PDT 5:54 PM PDT
Civil Twilight 7:27 AM PDT 6:26 PM PDT
Nautical Twilight 6:50 AM PDT 7:03 PM PDT
Astronomical Twilight 6:14 AM PDT 7:39 PM PDT
Moon 7:45 PM PDT (11/1) 10:47 AM PDT (11/1)
Length of Visible Light 10h 59m
Length of Day
9h 54m
Waning Gibbous, 92% of the Moon is Illuminated
Nov 1
Waning Gibbous
Nov 6
Last Quarter
Nov 13
New
Nov 20
First Quarter
Nov 28
Full

Hourly Weather History & Observations

Time (PDT) Temp. Dew Point Humidity Pressure Visibility Wind Dir Wind Speed Gust Speed Precip Events Conditions
12:03 AM 50.0 °F 48.0 °F 93% 29.68 in 3.0 mi SSW 3.5 mph - N/A   Mostly Cloudy
12:44 AM 48.0 °F 46.9 °F 96% 29.69 in 1.5 mi NNE 3.5 mph - N/A   Mostly Cloudy
12:51 AM 50.0 °F 48.2 °F 94% 29.69 in 0.2 mi Calm Calm - N/A Fog Fog
12:53 AM 50.0 °F 48.0 °F 93% 29.70 in 0.2 mi Variable 3.5 mph - N/A Fog Fog
1:04 AM 50.0 °F 48.9 °F 96% 29.69 in 0.2 mi Calm Calm - N/A Fog Fog
1:44 AM 48.9 °F 48.0 °F 97% 29.69 in 0.8 mi Calm Calm - N/A   Overcast
1:53 AM 50.0 °F 48.9 °F 96% 29.70 in 1.2 mi Calm Calm - N/A   Overcast
2:11 AM 50.0 °F 48.0 °F 93% 29.70 in 3.0 mi Calm Calm - N/A   Overcast
2:28 AM 50.0 °F 48.9 °F 96% 29.70 in 1.8 mi Calm Calm - N/A   Overcast
2:37 AM 50.0 °F 48.9 °F 96% 29.70 in 0.2 mi Calm Calm - N/A Fog Fog
2:53 AM 50.0 °F 48.9 °F 96% 29.71 in 0.5 mi Calm Calm - 0.00 in Fog , Rain Light Rain
3:06 AM 50.0 °F 48.9 °F 96% 29.71 in 0.2 mi Calm Calm - 0.00 in Fog Fog
3:51 AM 51.8 °F 50.0 °F 94% 29.70 in 0.5 mi Calm Calm - 0.00 in Fog Fog
3:53 AM 51.1 °F 50.0 °F 96% 29.71 in 0.5 mi Calm Calm - 0.00 in Fog Fog
4:04 AM 50.0 °F 48.9 °F 96% 29.71 in 0.2 mi Calm Calm - N/A Fog Fog
4:53 AM 50.0 °F 48.9 °F 96% 29.72 in 0.2 mi Calm Calm - N/A Fog Fog
5:14 AM 50.0 °F 48.9 °F 96% 29.72 in 1.0 mi Calm Calm - N/A   Overcast
5:16 AM 50.0 °F 48.9 °F 96% 29.72 in 2.0 mi Calm Calm - N/A   Overcast
5:24 AM 50.0 °F 48.9 °F 96% 29.72 in 6.0 mi WSW 3.5 mph - N/A   Overcast
5:47 AM 50.0 °F 48.2 °F 94% 29.72 in 1.5 mi South 3.5 mph - N/A   Overcast
5:53 AM 50.0 °F 48.0 °F 93% 29.73 in 0.5 mi SSW 4.6 mph - N/A Fog Fog
6:28 AM 50.0 °F 48.0 °F 93% 29.73 in 3.0 mi Calm Calm - N/A   Overcast
6:53 AM 48.9 °F 48.0 °F 97% 29.74 in 6.0 mi Calm Calm - N/A   Overcast
7:53 AM 50.0 °F 46.9 °F 89% 29.75 in 10.0 mi SW 4.6 mph - N/A   Mostly Cloudy
8:53 AM 51.1 °F 48.9 °F 92% 29.78 in 10.0 mi Calm Calm - N/A   Mostly Cloudy
9:53 AM 52.0 °F 48.9 °F 89% 29.79 in 10.0 mi Calm Calm - N/A   Clear
10:42 AM 55.0 °F 51.1 °F 86% 29.80 in 10.0 mi Calm Calm - N/A   Scattered Clouds
10:51 AM 55.4 °F 50.0 °F 82% 29.80 in 10.0 mi Calm Calm - N/A   Mostly Cloudy
10:53 AM 55.0 °F 50.0 °F 83% 29.80 in 10.0 mi East 3.5 mph - N/A   Mostly Cloudy
11:45 AM 55.0 °F 51.1 °F 86% 29.82 in 10.0 mi NNE 5.8 mph - N/A   Overcast
11:53 AM 54.0 °F 50.0 °F 86% 29.83 in 10.0 mi Variable 5.8 mph - N/A   Overcast
12:16 PM 53.1 °F 50.0 °F 89% 29.83 in 10.0 mi Calm Calm - N/A   Mostly Cloudy
12:41 PM 54.0 °F 51.1 °F 90% 29.84 in 10.0 mi North 3.5 mph - N/A   Overcast
12:53 PM 54.0 °F 51.1 °F 90% 29.85 in 10.0 mi Variable 4.6 mph - N/A   Overcast
1:13 PM 54.0 °F 51.1 °F 90% 29.85 in 10.0 mi NNE 4.6 mph - N/A   Overcast
1:21 PM 54.0 °F 51.1 °F 90% 29.85 in 10.0 mi Calm Calm - N/A   Overcast
1:30 PM 54.0 °F 51.1 °F 90% 29.86 in 10.0 mi Calm Calm - N/A   Overcast
1:38 PM 55.0 °F 51.1 °F 86% 29.86 in 10.0 mi Calm Calm - N/A   Overcast
1:53 PM 54.0 °F 50.0 °F 86% 29.87 in 10.0 mi Calm Calm - N/A   Overcast
2:53 PM 55.9 °F 50.0 °F 80% 29.88 in 10.0 mi Calm Calm - N/A   Overcast
3:53 PM 55.0 °F 51.1 °F 86% 29.89 in 10.0 mi Calm Calm - N/A   Overcast
4:53 PM 54.0 °F 51.1 °F 90% 29.90 in 10.0 mi Calm Calm - N/A   Overcast
5:53 PM 54.0 °F 51.1 °F 90% 29.90 in 9.0 mi Calm Calm - N/A   Overcast
6:53 PM 52.0 °F 50.0 °F 93% 29.93 in 4.0 mi Calm Calm - N/A   Overcast
7:03 PM 52.0 °F 50.0 °F 93% 29.93 in 2.0 mi Calm Calm - N/A   Overcast
7:15 PM 51.1 °F 50.0 °F 96% 29.93 in 2.5 mi Calm Calm - N/A   Overcast
7:30 PM 51.1 °F 50.0 °F 96% 29.94 in 1.2 mi Calm Calm - N/A   Overcast
7:41 PM 52.0 °F 50.0 °F 93% 29.94 in 3.0 mi Calm Calm - N/A   Overcast
7:53 PM 51.1 °F 50.0 °F 96% 29.94 in 2.5 mi Calm Calm - N/A   Overcast
8:06 PM 51.1 °F 48.9 °F 92% 29.94 in 1.2 mi Calm Calm - N/A   Overcast
8:27 PM 51.1 °F 48.9 °F 92% 29.94 in 0.5 mi Calm Calm - N/A Fog Fog
8:43 PM 50.0 °F 48.9 °F 96% 29.94 in 0.2 mi Calm Calm - N/A Fog Fog
8:53 PM 50.0 °F 48.0 °F 93% 29.95 in 0.2 mi Calm Calm - N/A Fog Fog
9:08 PM 50.0 °F 48.9 °F 96% 29.95 in 1.0 mi Calm Calm - N/A   Overcast
9:17 PM 50.0 °F 48.0 °F 93% 29.95 in 2.5 mi Calm Calm - N/A   Overcast
9:25 PM 50.0 °F 48.9 °F 96% 29.96 in 1.2 mi Calm Calm - N/A   Overcast
9:33 PM 48.9 °F 48.0 °F 97% 29.96 in 0.5 mi Calm Calm - N/A Fog Fog
9:51 PM 50.0 °F 48.2 °F 94% 29.97 in 1.8 mi Calm Calm - N/A   Overcast
9:53 PM 50.0 °F 48.0 °F 93% 29.97 in 1.8 mi Calm Calm - N/A   Overcast
10:06 PM 50.0 °F 48.9 °F 96% 29.96 in 0.5 mi Calm Calm - N/A Fog Fog
10:32 PM 48.9 °F 48.0 °F 97% 29.97 in 1.0 mi SSE 4.6 mph - N/A   Mist
10:37 PM 48.9 °F 48.0 °F 97% 29.97 in 0.5 mi South 4.6 mph - N/A Fog Fog
10:45 PM 50.0 °F 48.9 °F 96% 29.97 in 0.2 mi Calm Calm - N/A Fog Fog
10:53 PM 50.0 °F 48.9 °F 96% 29.98 in 0.2 mi Calm Calm - N/A Fog Fog
11:05 PM 50.0 °F 48.9 °F 96% 29.97 in 0.8 mi Calm Calm - N/A   Overcast
11:12 PM 48.9 °F 48.0 °F 97% 29.98 in 2.0 mi SW 5.8 mph - N/A   Overcast
11:21 PM 48.9 °F 48.0 °F 97% 29.98 in 5.0 mi Calm Calm - N/A   Overcast
11:53 PM 48.0 °F 46.9 °F 96% 29.98 in 4.0 mi Calm Calm - N/A   Overcast